Regional Weather Roundup
Issued by NWS

Home | Current Version | Previous Version | Graphics & Text | Print | Product List | Glossary On
Versions: 1 2 3 4 5 6 7 8 9 10 11 12 13 14 15 16 17 18 19 20 21 22 23 24 25 26 27 28 29 30 31 32 33 34 35 36 37 38 39 40 41 42 43 44 45 46 47 48 49 50
000
ASUS45 KBOU 011807
RWRCO

WEATHER ROUNDUP FOR COLORADO
NATIONAL WEATHER SERVICE DENVER/BOULDER CO
1200 PM MDT WED OCT 01 2014

NOTE: "FAIR" INDICATES FEW OR NO CLOUDS BELOW 12000 FEET WITH NO
SIGNIFICANT WEATHER AND/OR OBSTRUCTIONS TO VISIBILITY.

COZ001>005-013-030-031-011900-
...NORTHWEST COLORADO...

CITY           SKY/WX    TMP DP  RH WIND       PRES   REMARKS
CRAIG          CLOUDY    44  38  79 S6        30.03S
HAYDEN         CLOUDY    36  34  93 SE10      30.02F
MEEKER         CLOUDY    42  38  85 SE5       30.03S
MOUNT WERNER   NOT AVBL
STEAMBOAT SPGS CLOUDY    36  34  94 SE3       30.03S
WALDEN         CLOUDY    32  32 100 NW12      30.02S VSB 1/4 WCI  23
$$

COZ006>008-011-011900-
...WEST CENTRAL VALLEYS...

CITY           SKY/WX    TMP DP  RH WIND       PRES   REMARKS
GRAND JUNCTION PTSUNNY   51  42  71 CALM      30.01S
MONTROSE       LGT RAIN  45  42  89 SE8       30.06F
EAGLE          LGT RAIN  43  41  93 W7        30.04R
RIFLE          PTSUNNY   46  41  82 E5        30.03S
DELTA          RAIN      50  45  82 CALM      30.04R
NUCLA          CLOUDY    46  45  93 SE10      30.07F
$$

COZ017>023-064>068-011900-
...SOUTHWEST COLORADO...

CITY           SKY/WX    TMP DP  RH WIND       PRES   REMARKS
DURANGO        SUNNY     56  40  55 S5        30.02F
CORTEZ         PTSUNNY   63  40  42 W13       29.99S
PAGOSA SPRINGS PTSUNNY   50  42  73 E3        30.07F
TELLURIDE      TSTM     N/A N/A N/A W8        30.07F
WOLF CREEK PAS SNOW      30  30 100 SW20G26   30.19S VSB<1/4 WCI  18
$$

COZ009-010-012-014-032>034-037-058>063-011900-
...CENTRAL COLORADO...

CITY           SKY/WX    TMP DP  RH WIND       PRES   REMARKS
ASPEN          LGT SNOW  33  33 100 N3        30.06R
BUENA VISTA    CLOUDY    53  31  43 SE16G22   29.97F
COPPER MTN     CLOUDY    37  30  75 S15       30.10F
BERTHOUD PASS  LGT SNOW  27  23  86 SE13      30.14S WCI  16
COTTONWOOD PAS CLOUDY    52  25  35 W8G25     30.04F
GUNNISON         N/A    N/A N/A N/A SW7         N/A
KREMMLING      LGT RAIN  41  36  81 NW9       30.02R
LEADVILLE      CLOUDY    43  27  53 S13       30.02F
MONARCH PASS   SNOW      30  30 100 MISG      30.24F VSB<1/4
SALIDA         CLOUDY    56  35  45 W14G20    30.07R
SUNLIGHT       LGT SNOW  34  32  93 CALM      30.12S VSB 3/4
WILKERSON PASS NOT AVBL
$$

COZ069>075-011900-
...SAN LUIS VALLEY/SANGRE DE CRISTO MOUNTAINS...

CITY           SKY/WX    TMP DP  RH WIND       PRES   REMARKS
ALAMOSA        CLOUDY    54  36  50 N6        30.02F
LA VETA PASS   MOSUNNY   54  27  35 SW7       30.12S
SAGUACHE       PTSUNNY   50  36  57 SE10      30.04F
$$

COZ035-036-038>040-011900-
...NORTHERN COLORADO FRONT RANGE...

CITY           SKY/WX    TMP DP  RH WIND       PRES   REMARKS
DENVER INTL AP PTSUNNY   65  38  36 SE15G23   29.86F
DMNS CITY PARK   N/A     64  33  31 SW3       29.86F
AURORA         PTSUNNY   62  34  35 W2        29.88F
FRONT RANGE AP NOT AVBL
ERIE MUNI ARPT PTSUNNY   63  37  37 E6        29.86F
BOULDER MUN AP PTSUNNY   63  36  36 NE6       29.86F
CENTENNIAL     PTSUNNY   63  34  33 S13       29.88F
BROOMFIELD     PTSUNNY   61  36  39 VRB3      29.88F
FORT COLLINS   PTSUNNY   61  41  48 E9G16     29.89F
LONGMONT       PTSUNNY   65  40  39 E8        29.89S
$$

COZ041-046-047-076>085-087-088-011900-
...PIKES PEAK/PALMER DIVIDE AND SOUTHERN FOOTHILLS...

CITY           SKY/WX    TMP DP  RH WIND       PRES   REMARKS
COLO. SPRINGS  PTSUNNY   62  32  32 SE10G20   29.93F
A. F. ACADEMY  PTSUNNY   59  32  35 SE12      29.93F
ELLICOTT       NOT AVBL
FALCON         PTSUNNY   59  32  36 S10       29.97F
FORT CARSON    PTSUNNY   63  34  34 VRB5      29.91F
LIMON          MOSUNNY   64  36  35 SE8       29.91F
MONUMENT HILL  CLOUDY    59  32  36 S13G23    29.94F
TRINIDAD       SUNNY     67  31  26 E13       29.91F
$$

COZ042>045-048>051-090-091-011900-
...NORTHEAST COLORADO...

CITY           SKY/WX    TMP DP  RH WIND       PRES   REMARKS
GREELEY ARPT   MOSUNNY   64  41  42 S7        29.88F
AKRON          MOSUNNY   62  43  49 NE7       29.89F
BURLINGTON     SUNNY     69  41  36 NE9       29.87F
WRAY           MOSUNNY   70  43  38 NW3       29.85F
STERLING       MOSUNNY   68  45  42 N8G17     29.86S
HOLYOKE        MOSUNNY   72  46  40 NE9       29.85F
FORT MORGAN    MOSUNNY   64  38  38 NE13      29.88F
$$

COZ086-089-092>099-011900-
...SOUTHEAST COLORADO...

CITY           SKY/WX    TMP DP  RH WIND       PRES   REMARKS
PUEBLO         MOSUNNY   68  36  30 SE9       29.87F
LA JUNTA       SUNNY     70  39  32 E9        29.86F
LAMAR          SUNNY     72  44  36 NE7       29.83F
SPRINGFIELD      N/A     72  38  29 VRB7      29.86F
$$


USA.gov is the U.S. government's official web portal to all federal, state and local government web resources and services.